This is the latest recevied weather packets stored in our database for station/object TG5ALY-15. If no packets are shown the sender has not sent any weather packets the latest 10 day(s).
| Time | Temp. | Humidity | Pressure | Rain* | Wind** | Luminosity | Snow |
|---|---|---|---|---|---|---|---|
| 1778144005 | 13.89° C | 89% | 1029.9 hPa | 0 mm | - | 0 W/m² | - |
| 1778142804 | 13.89° C | 90% | 1029.9 hPa | 0 mm | - | 0 W/m² | - |
| 1778141601 | 13.89° C | 91% | 1029.9 hPa | 0 mm | - | 0 W/m² | - |
| 1778140398 | 13.89° C | 92% | 1030.4 hPa | 0 mm | - | 0 W/m² | - |
| 1778139197 | 13.89° C | 90% | 1030.8 hPa | 0 mm | - | 0 W/m² | - |
| 1778137998 | 14.44° C | 92% | 1030.8 hPa | 0 mm | - | 0 W/m² | - |
| 1778136796 | 13.89° C | 91% | 1030.8 hPa | 0 mm | - | 0 W/m² | - |
| 1778135592 | 13.89° C | 92% | 1030.8 hPa | 0 mm | - | 0 W/m² | - |
| 1778134388 | 14.44° C | 92% | 1031.3 hPa | 0 mm | - | 0 W/m² | - |
| 1778133185 | 14.44° C | 91% | 1031.7 hPa | 0 mm | - | 0 W/m² | - |
| 1778131986 | 14.44° C | 88% | 1032.1 hPa | 0 mm | - | 0 W/m² | - |
| 1778130781 | 14.44° C | 93% | 1031.7 hPa | 0 mm | - | 0 W/m² | - |
| 1778129579 | 14.44° C | 94% | 1031.7 hPa | 0 mm | - | 0 W/m² | - |
| 1778128378 | 15° C | 93% | 1031.7 hPa | 0 mm | - | 0 W/m² | - |
| 1778127175 | 15.56° C | 93% | 1031.7 hPa | 0 mm | - | 0 W/m² | - |
| 1778125972 | 15.56° C | 92% | 1031.7 hPa | 0 mm | - | 0 W/m² | - |
| 1778124768 | 15.56° C | 93% | 1031.3 hPa | 0 mm | - | 0 W/m² | - |
| 1778123567 | 15.56° C | 92% | 1030.8 hPa | 0 mm | - | 0 W/m² | - |
| 1778122367 | 16.11° C | 92% | 1030.8 hPa | 0 mm | - | 0 W/m² | - |
| 1778121166 | 16.11° C | 92% | 1030.8 hPa | 0 mm | - | 0 W/m² | - |
| 1778119962 | 16.11° C | 91% | 1030.8 hPa | 0 mm | - | 0 W/m² | - |
| 1778118757 | 16.11° C | 92% | 1030.4 hPa | 0 mm | - | 0 W/m² | - |
| 1778117555 | 16.11° C | 91% | 1030.8 hPa | 0 mm | - | 0 W/m² | - |
| 1778116354 | 16.67° C | 90% | 1030.4 hPa | 0 mm | - | 0 W/m² | - |
| 1778115148 | 17.22° C | 88% | 1029.9 hPa | 0 mm | - | 0 W/m² | - |
* Rain latest hour (hover to see other rain measurements)
** Current wind speed in m/s (hover to see current wind gust speed)